Location: Brookview Estates
(36.0476°N, 86.6931°W)
Time: 02:24:13
(UTC+00:00)

Okean 2 Rocket - Pass Details

Date: 30 March 2020
Orbit: 617 x 641 km, 82.5° (Epoch: 25 May)

Event Time Altitude Azimuth Distance (km) Brightness Sun altitude
Rises 10:32:12 0° 353° (N) 2,933 6.6 -13.3°
Reaches altitude 10° 10:34:26 10° 353° (N) 2,024 5.8 -12.9°
Maximum altitude 10:38:56 89° 289° (WNW) 642 3.1 -12.0°
Drops below altitude 10° 10:43:26 10° 175° (S) 2,022 5.6 -11.1°
Sets 10:45:40 0° 175° (S) 2,928 6.4 -10.7°
